User: anonymous   Login
Location: Unspecified
(0.0000°N, 0.0000°E)
Time: 01:55:39
(UTC+00:00)
Language:

SICH 2 - Orbit

View from above orbital plane
View from above orbital plane
View from above satellite
View from above satellite

Ground track
Ground track

The orbit data is extracted from the following two-line orbital elements,

1 37794U 11044G   17147.94111131 +.00000096 +00000-0 +28583-4 0  9996
2 37794 098.0733 224.7114 0013152 166.2708 310.2254 14.61690331307994
Epoch (UTC): 27 May 2017 22:35:12
Eccentricity: 0.0013152
inclination: 98.0733°
perigee height: 678 km
apogee height: 697 km
right ascension of ascending node: 224.7114°
argument of perigee: 166.2708°
revolutions per day: 14.61690331
mean anomaly at epoch: 310.2254°
orbit number at epoch: 30799

The dashed part of the orbit path shows where the satellite is in the earth's shadow,  

DLR